Wind_Speed
15 14 13 11 10 7 6 6 6 6 7 7 7 6 8 11 12 12 12 13 13 13 13 13 13 12 12 11 11 12 11 11 10 10 9 9 9 9 10 10 9 8 7 6
17 16 14 13 12 11 9 8 7 8 8 6 7 6 6 8 11 11 12 12 12 12 12 11 12 12 11 11 10 10 11 10 10 10 9 9 9 9 9 9 8 8 7 6
19 16 16 16 16 15 13 10 10 10 8 6 8 10 7 7 9 10 10 11 11 11 11 12 12 11 10 10 10 10 10 10 10 10 9 9 8 8 9 9 8 8 7 6
20 19 20 19 19 16 14 13 12 11 9 7 7 11 9 7 8 9 10 10 10 9 9 10 11 10 10 10 10 10 10 10 10 9 9 8 8 8 8 8 7 7 6 6
22 22 22 22 21 18 17 16 14 13 11 9 8 10 15 8 8 8 9 9 9 8 8 9 9 10 10 9 9 9 10 9 10 9 9 8 7 8 7 7 7 6 6 6
25 24 24 23 22 21 19 17 15 14 13 13 10 11 13 12 11 8 8 8 8 7 7 8 9 9 9 9 9 9 9 9 9 9 9 8 8 8 8 7 7 6 5 5
27 26 25 25 24 22 21 18 15 14 15 15 11 11 13 11 11 10 9 7 6 6 6 7 8 8 8 8 8 8 8 9 9 9 8 8 8 8 8 7 7 7 6 6
24 26 26 26 26 24 23 21 19 17 15 15 12 12 12 11 12 11 9 7 6 5 5 6 7 7 7 7 8 8 8 8 8 8 8 8 8 7 7 7 7 7 7 7
23 23 25 26 25 26 25 23 21 20 19 19 16 14 13 13 13 12 10 8 8 7 7 7 7 7 6 7 7 7 8 7 7 8 8 8 8 8 8 7 7 7 8 8
26 24 24 26 26 27 27 24 22 23 23 20 18 16 15 14 14 12 12 11 10 9 8 8 8 7 7 7 7 7 7 7 7 7 7 8 8 8 8 8 8 8 8 8
30 27 24 26 28 26 27 27 26 25 24 21 19 17 15 14 14 12 13 13 12 11 9 9 8 8 7 7 7 7 7 8 7 7 8 8 9 9 9 9 9 9 9 9
32 29 26 26 27 25 26 27 26 26 25 24 20 18 16 14 13 13 13 14 14 13 11 10 9 8 8 8 8 8 8 8 8 8 8 9 9 10 10 10 10 9 9 10
33 33 29 25 26 26 27 27 26 25 23 23 22 21 22 19 18 16 16 15 14 14 13 11 11 10 9 9 10 9 8 8 8 9 9 10 10 10 10 10 10 10 11 11
35 36 34 28 26 25 27 28 27 27 26 24 24 24 23 22 19 18 19 19 17 16 14 13 12 11 11 11 11 10 10 10 10 10 11 11 11 11 11 11 11 11 12 12
36 37 36 32 28 27 26 26 28 29 29 26 24 23 23 24 21 20 20 20 19 17 16 15 14 14 13 13 12 11 11 12 12 12 12 12 13 13 12 12 11 12 12 13
36 37 37 36 32 29 28 27 27 28 29 28 26 26 24 26 24 23 22 21 20 19 18 17 16 16 15 14 14 13 13 13 13 13 13 13 13 14 14 13 12 13 13 14
35 37 37 35 32 31 31 29 28 27 28 28 29 28 27 29 29 27 24 23 22 22 21 19 19 18 17 16 16 15 15 15 15 15 15 14 14 14 15 14 14 14 15 15
35 36 36 34 32 34 34 30 29 28 27 27 28 29 29 30 30 29 27 24 23 23 22 22 21 20 19 19 18 18 17 17 17 17 17 16 16 16 16 15 15 15 16 17
35 36 35 33 32 33 31 31 30 31 30 29 29 30 31 30 30 29 28 25 24 24 24 23 23 23 22 21 20 20 20 19 19 19 18 18 18 18 17 17 18 18 19 19
34 35 35 34 33 32 31 30 31 31 33 33 33 32 33 32 31 31 29 28 26 25 25 25 25 25 25 24 23 23 22 21 21 21 20 20 20 20 20 20 20 21 21 21
35 35 36 34 33 32 30 31 31 32 33 33 33 33 33 33 33 31 29 29 27 26 26 27 26 26 26 26 25 25 24 23 22 22 22 22 22 22 22 22 22 23 22 22
35 34 35 35 33 31 29 30 32 32 33 33 32 33 33 32 31 31 30 30 28 28 28 28 28 27 27 27 27 27 27 25 24 23 24 24 25 24 23 23 23 23 23 24
34 35 34 35 35 34 32 33 33 33 33 33 34 34 34 32 31 31 31 31 30 29 29 29 29 29 28 28 29 28 28 27 26 26 26 26 26 25 25 25 25 25 24 24
33 33 35 36 37 36 33 34 34 33 34 34 33 33 33 33 32 31 31 31 31 30 30 29 29 29 30 30 30 30 29 28 28 28 28 28 27 27 28 27 27 28 27 27
32 35 36 37 36 35 35 35 33 32 32 32 32 33 33 33 33 32 32 32 31 31 31 31 30 30 31 31 31 31 31 31 31 31 31 31 30 30 30 30 30 30 30 29
33 34 35 37 36 35 35 34 34 32 31 32 32 33 34 33 33 33 32 31 31 32 32 32 31 32 32 32 32 32 32 32 32 32 32 33 33 33 32 32 32 31 31 31
Wind_Direction
207 205 208 215 222 219 215 220 240 261 294 303 305 332 359 5 8 15 21 25 28 31 30 30 32 35 37 37 39 41 44 44 42 43 44 45 47 49 49 50 56 60 63 67
213 214 210 215 222 229 222 225 243 264 280 291 302 311 339 352 354 2 9 15 21 24 26 26 26 27 32 35 36 37 39 40 39 39 41 42 43 45 45 47 51 52 55 57
214 216 217 216 221 224 230 229 234 245 266 291 288 298 308 331 338 350 357 3 9 16 21 23 23 24 26 30 31 33 36 37 36 36 36 37 40 44 46 49 47 47 47 46
216 215 221 221 221 222 231 233 236 239 250 264 269 287 298 303 322 339 345 351 360 6 15 19 20 20 23 26 28 29 30 31 32 31 30 31 33 37 37 36 37 36 35 38
216 218 222 222 222 223 227 233 236 241 243 251 261 279 289 291 302 318 331 343 349 358 4 10 13 14 17 20 23 24 24 25 27 27 25 27 27 28 27 26 31 30 31 32
217 220 224 224 223 224 227 235 238 244 247 250 247 260 276 290 296 299 313 328 341 351 358 2 5 10 11 14 17 20 21 23 24 24 23 21 20 22 22 21 21 21 19 17
221 221 225 225 225 225 224 228 233 240 245 251 242 247 259 276 287 299 304 312 328 343 353 357 0 5 8 9 11 14 15 17 18 17 16 16 16 16 16 15 14 11 8 2
227 227 227 228 224 221 225 223 229 238 250 260 243 238 252 268 282 286 292 296 313 325 336 344 350 353 0 2 2 3 3 5 10 13 11 11 9 7 6 7 5 1 1 4
222 232 236 236 229 223 224 226 227 241 251 260 260 250 250 261 266 278 286 284 292 305 313 323 331 339 343 347 349 351 354 356 360 4 5 4 0 359 357 357 358 356 356 359
218 226 231 236 235 227 223 224 226 233 245 251 254 251 240 246 267 275 276 275 278 287 296 307 316 321 322 327 334 338 340 340 344 348 351 352 351 351 351 349 346 345 346 349
217 222 225 230 233 228 224 222 223 227 233 243 254 254 246 244 259 264 272 272 274 278 284 290 301 307 308 313 321 329 331 331 330 333 336 339 342 345 344 341 337 336 337 339
218 220 223 228 235 230 227 227 225 229 231 230 242 257 259 257 258 257 268 271 268 271 274 280 287 294 299 302 307 315 320 323 323 323 326 329 331 333 336 335 332 330 329 332
219 218 220 221 228 232 228 226 224 229 237 239 242 248 253 259 253 249 259 262 261 264 268 273 279 286 292 294 298 303 307 313 314 316 318 320 322 325 327 328 327 324 323 323
219 219 218 219 225 230 233 227 222 222 228 236 241 247 253 254 254 249 252 259 259 261 262 268 273 279 284 288 290 292 296 301 304 308 311 314 313 315 316 317 320 321 322 323
221 220 220 217 220 225 233 233 228 225 223 228 236 240 251 254 250 250 250 253 254 257 259 262 267 272 276 281 282 284 287 292 295 301 306 308 308 307 304 305 311 316 318 319
222 221 221 221 220 223 229 229 231 232 230 230 235 239 246 251 248 247 251 253 256 255 255 257 262 265 270 276 279 282 285 289 292 296 301 304 306 306 305 303 304 308 310 312
223 223 223 224 224 226 227 226 227 229 232 234 236 240 244 248 255 251 251 253 255 255 253 254 259 264 265 268 274 276 281 284 288 290 295 299 302 303 304 302 303 305 306 308
224 223 225 224 224 229 229 226 227 229 229 231 238 241 245 250 255 258 255 253 256 257 256 254 256 260 261 263 267 271 277 281 285 286 289 293 295 298 300 300 303 304 305 305
227 224 224 224 228 231 230 227 227 229 231 231 234 238 241 245 252 257 259 255 255 256 257 255 254 255 258 260 263 268 273 278 281 284 286 290 292 293 294 297 298 299 300 302
227 225 224 224 226 230 229 228 228 230 234 234 236 238 241 243 246 251 254 256 256 255 255 254 255 256 259 261 262 266 270 275 278 281 284 287 287 288 290 292 295 296 295 297
225 225 223 223 227 232 229 226 226 230 233 234 236 239 242 243 246 251 253 255 254 254 255 255 257 258 261 262 262 263 266 271 274 279 283 283 285 285 287 288 290 290 291 293
225 226 225 223 226 232 232 231 227 231 234 235 238 241 245 248 249 250 251 252 254 254 255 256 257 258 260 261 263 264 266 270 274 277 281 282 282 281 282 285 286 286 287 291
225 225 225 225 228 230 231 233 233 234 236 238 239 242 246 249 250 249 250 251 252 252 253 255 257 258 258 259 263 265 267 270 273 276 277 279 279 279 280 282 284 284 285 288
225 224 225 226 229 230 233 235 235 236 238 241 242 244 245 248 250 250 250 252 253 252 252 254 255 257 259 260 264 266 267 269 271 273 276 277 278 278 278 280 281 282 283 286
223 225 227 229 229 229 231 235 238 238 239 241 243 244 245 247 249 250 251 252 253 253 254 253 255 257 259 261 263 265 267 268 269 270 273 273 274 278 279 278 278 282 282 284
224 225 225 228 229 232 235 235 237 239 240 242 243 243 244 247 249 250 251 252 253 254 254 254 254 256 258 260 262 264 265 266 266 267 270 272 273 275 277 278 277 280 282 283
Height
5915 5918 5920 5923 5925 5926 5929 5929 5930 5930 5929 5929 5927 5925 5925 5924 5923 5921 5919 5918 5916 5914 5913 5911 5910 5908 5907 5906 5905 5904 5903 5902 5901 5900 5898 5897 5897 5896 5896 5895 5894 5894 5894 5894
5914 5916 5920 5922 5924 5926 5927 5930 5931 5930 5929 5929 5927 5925 5925 5925 5924 5922 5921 5919 5917 5916 5915 5913 5912 5910 5909 5908 5907 5906 5905 5904 5902 5901 5900 5900 5899 5898 5897 5897 5896 5896 5895 5895
5910 5916 5918 5920 5923 5926 5926 5928 5929 5928 5929 5928 5928 5926 5925 5924 5924 5923 5922 5920 5919 5917 5916 5915 5913 5912 5910 5909 5908 5907 5906 5905 5904 5903 5902 5901 5900 5899 5899 5898 5898 5897 5897 5896
5908 5912 5915 5918 5920 5923 5925 5926 5927 5927 5927 5928 5928 5926 5925 5923 5924 5923 5922 5921 5920 5918 5917 5916 5915 5913 5912 5911 5910 5909 5908 5907 5906 5904 5903 5902 5902 5901 5900 5900 5899 5898 5898 5897
5904 5908 5911 5914 5917 5920 5923 5923 5924 5925 5925 5927 5927 5927 5924 5922 5923 5923 5922 5921 5920 5919 5918 5917 5916 5915 5913 5912 5911 5910 5909 5908 5907 5906 5905 5904 5903 5902 5902 5901 5900 5899 5899 5898
5900 5904 5907 5910 5913 5916 5919 5920 5921 5923 5924 5925 5926 5928 5925 5922 5922 5921 5921 5921 5921 5920 5919 5918 5917 5915 5914 5914 5912 5911 5910 5909 5908 5907 5906 5905 5904 5903 5902 5902 5901 5900 5899 5899
5895 5898 5902 5905 5909 5912 5915 5918 5919 5920 5922 5922 5923 5924 5924 5922 5921 5921 5921 5921 5920 5920 5919 5918 5917 5916 5915 5914 5913 5912 5911 5911 5909 5908 5907 5906 5905 5904 5903 5902 5902 5901 5900 5899
5891 5894 5897 5900 5903 5907 5910 5914 5917 5919 5920 5919 5918 5920 5922 5920 5921 5920 5920 5920 5919 5919 5919 5918 5918 5917 5916 5915 5914 5913 5912 5911 5910 5909 5908 5907 5906 5905 5904 5903 5902 5902 5901 5900
5887 5891 5894 5895 5899 5903 5906 5910 5914 5917 5917 5918 5917 5918 5918 5918 5919 5919 5919 5918 5918 5918 5918 5918 5917 5917 5916 5915 5914 5913 5912 5911 5911 5910 5908 5908 5907 5906 5905 5904 5903 5902 5901 5900
5882 5886 5889 5891 5894 5897 5902 5905 5910 5912 5913 5914 5915 5914 5915 5914 5916 5917 5916 5916 5916 5917 5917 5917 5916 5916 5915 5915 5914 5913 5912 5911 5910 5910 5909 5908 5907 5906 5905 5904 5903 5902 5901 5900
5875 5880 5884 5886 5888 5892 5896 5900 5902 5906 5909 5911 5912 5911 5908 5910 5912 5913 5914 5914 5914 5915 5915 5915 5915 5915 5914 5914 5913 5913 5912 5911 5910 5909 5909 5908 5907 5906 5905 5904 5903 5902 5901 5900
5867 5873 5876 5881 5884 5886 5891 5894 5898 5901 5903 5905 5908 5911 5907 5909 5909 5909 5910 5911 5912 5912 5913 5913 5913 5913 5913 5912 5912 5911 5911 5910 5909 5908 5908 5907 5906 5905 5904 5903 5902 5901 5900 5899
5860 5865 5869 5874 5880 5881 5884 5889 5893 5898 5901 5902 5905 5908 5904 5905 5906 5905 5908 5908 5909 5910 5910 5911 5911 5911 5911 5910 5910 5910 5910 5909 5908 5907 5907 5906 5905 5904 5903 5902 5901 5899 5898 5897
5852 5857 5863 5869 5873 5877 5879 5883 5887 5892 5895 5898 5901 5901 5900 5901 5901 5901 5903 5905 5906 5906 5907 5908 5908 5908 5908 5908 5908 5908 5908 5907 5907 5906 5905 5904 5903 5902 5901 5900 5899 5898 5897 5896
5844 5850 5855 5860 5866 5871 5873 5877 5881 5885 5889 5893 5894 5895 5896 5895 5896 5896 5898 5900 5901 5902 5904 5904 5905 5905 5905 5905 5906 5905 5905 5905 5905 5904 5903 5902 5901 5900 5899 5898 5897 5896 5895 5894
5837 5842 5847 5852 5858 5862 5866 5871 5875 5879 5883 5886 5888 5890 5891 5889 5889 5891 5893 5895 5896 5897 5899 5901 5901 5902 5902 5903 5903 5903 5902 5902 5902 5901 5901 5900 5899 5898 5897 5896 5895 5894 5893 5891
5829 5835 5840 5846 5852 5855 5858 5864 5869 5872 5877 5880 5881 5883 5885 5884 5883 5885 5888 5891 5892 5893 5894 5896 5897 5898 5899 5899 5900 5900 5899 5899 5899 5898 5898 5897 5896 5895 5894 5893 5892 5891 5890 5889
5822 5827 5832 5838 5844 5847 5853 5858 5862 5865 5869 5873 5875 5876 5877 5878 5878 5880 5882 5884 5887 5888 5889 5891 5893 5893 5894 5895 5895 5896 5895 5895 5895 5895 5894 5894 5893 5892 5891 5890 5890 5888 5887 5886
5816 5821 5826 5831 5836 5840 5846 5849 5853 5858 5861 5864 5867 5869 5871 5873 5874 5875 5875 5877 5881 5883 5884 5886 5887 5888 5889 5890 5890 5891 5891 5891 5891 5891 5890 5890 5889 5889 5888 5887 5886 5885 5883 5882
5808 5813 5819 5823 5828 5832 5839 5843 5846 5850 5852 5856 5859 5861 5863 5866 5868 5869 5870 5872 5874 5877 5878 5880 5881 5882 5883 5884 5885 5885 5886 5886 5886 5886 5886 5885 5885 5884 5883 5882 5881 5880 5879 5877
5801 5805 5810 5815 5819 5824 5829 5833 5838 5843 5844 5847 5849 5853 5855 5858 5860 5862 5864 5866 5868 5870 5872 5874 5875 5876 5877 5878 5878 5879 5880 5880 5880 5880 5880 5880 5879 5879 5878 5876 5875 5875 5874 5872
5793 5799 5803 5808 5813 5818 5821 5824 5828 5832 5835 5838 5842 5845 5847 5850 5853 5855 5857 5859 5861 5863 5865 5866 5868 5869 5871 5871 5872 5872 5873 5874 5874 5874 5874 5874 5874 5873 5872 5871 5870 5869 5868 5867
5786 5792 5797 5801 5806 5809 5813 5816 5819 5823 5827 5830 5834 5837 5839 5842 5844 5846 5849 5851 5853 5855 5857 5859 5861 5862 5863 5864 5865 5866 5867 5867 5867 5868 5868 5868 5867 5867 5866 5865 5864 5863 5862 5860
5779 5784 5788 5792 5796 5801 5804 5807 5810 5814 5819 5822 5825 5828 5831 5833 5836 5838 5841 5843 5845 5847 5849 5851 5853 5854 5856 5857 5857 5859 5859 5860 5860 5861 5861 5861 5860 5859 5859 5858 5857 5856 5855 5854
5770 5775 5779 5783 5788 5792 5796 5800 5803 5806 5810 5814 5817 5819 5822 5825 5827 5830 5832 5835 5837 5839 5841 5843 5845 5846 5848 5849 5850 5851 5851 5852 5852 5853 5853 5853 5853 5852 5851 5850 5850 5849 5848 5847
5761 5765 5770 5775 5781 5786 5789 5792 5796 5799 5803 5806 5809 5811 5814 5817 5819 5821 5824 5826 5828 5830 5832 5834 5836 5838 5839 5840 5842 5842 5843 5843 5844 5844 5844 5845 5844 5844 5843 5842 5841 5840 5840 5839